This is the latest recevied weather packets stored in our database for station/object KE5QKR. If no packets are shown the sender has not sent any weather packets the latest 10 day(s).
| Time | Temp. | Humidity | Pressure | Rain* | Wind** | Luminosity | Snow |
|---|---|---|---|---|---|---|---|
| 1777761476 | 21.67° C | 41% | 1013.8 hPa | 0 mm | - | 189 W/m² | - |
| 1777761174 | 21.67° C | 41% | 1013.8 hPa | 0 mm | - | 100 W/m² | - |
| 1777760871 | 21.67° C | 44% | 1013.7 hPa | 0 mm | - | 219 W/m² | - |
| 1777759960 | 21.67° C | 40% | 1013.8 hPa | 0 mm | - | 235 W/m² | - |
| 1777759657 | 21.67° C | 41% | 1013.6 hPa | 0 mm | - | 133 W/m² | - |
| 1777759353 | 21.67° C | 41% | 1013.7 hPa | 0 mm | - | 99 W/m² | - |
| 1777759050 | 21.67° C | 42% | 1013.9 hPa | 0 mm | - | 65 W/m² | - |
| 1777757838 | 21.67° C | 40% | 1013.8 hPa | 1.27 mm | - | 424 W/m² | - |
| 1777757536 | 21.67° C | 40% | 1013.4 hPa | 0 mm | - | 441 W/m² | - |
| 1777754811 | 21.67° C | 42% | 1013.7 hPa | 0 mm | - | 582 W/m² | - |
| 1777754204 | 21.67° C | 42% | 1013.6 hPa | 0 mm | - | 610 W/m² | - |
| 1777753902 | 21.67° C | 42% | 1013.7 hPa | 0 mm | - | 623 W/m² | - |
| 1777753597 | 21.67° C | 42% | 1013.8 hPa | 0 mm | - | 635 W/m² | - |
| 1777753295 | 21.67° C | 40% | 1013.8 hPa | 0 mm | - | 650 W/m² | - |
| 1777752688 | 21.67° C | 43% | 1013.7 hPa | 0 mm | - | 673 W/m² | - |
| 1777751172 | 21.67° C | 43% | 1014.1 hPa | 0 mm | - | 734 W/m² | - |
| 1777750565 | 21.67° C | 43% | 1014.2 hPa | 0 mm | - | 757 W/m² | - |
| 1777750262 | 21.11° C | 47% | 1014.1 hPa | 0 mm | - | 765 W/m² | - |
| 1777749958 | 21.11° C | 46% | 1014.2 hPa | 0 mm | - | 772 W/m² | - |
| 1777749655 | 21.11° C | 50% | 1014.1 hPa | 0 mm | - | 785 W/m² | - |
| 1777749352 | 21.11° C | 50% | 1014.1 hPa | 0 mm | - | 790 W/m² | - |
| 1777749051 | 21.11° C | 51% | 1014 hPa | 0 mm | - | 798 W/m² | - |
| 1777748747 | 21.11° C | 54% | 1014.2 hPa | 0 mm | - | 805 W/m² | - |
| 1777748444 | 21.11° C | 53% | 1014.3 hPa | 0 mm | - | 813 W/m² | - |
| 1777747836 | 21.11° C | 56% | 1014 hPa | 0 mm | - | 815 W/m² | - |
* Rain latest hour (hover to see other rain measurements)
** Current wind speed in m/s (hover to see current wind gust speed)